Time,TemperatureF,DewpointF,PressureIn,WindDirection,WindDirectionDegrees,WindSpeedMPH,WindSpeedGustMPH,Humidity,HourlyPrecipIn,Conditions,Clouds,dailyrainin,SoftwareType,DateUTC
2013-11-18 00:01:00,47.3,40.8,29.10,WSW,248,5.4,10.5,78,0.00,,,0.00,WUHU216HW,2013-11-18 05:01:00,
2013-11-18 00:06:00,47.3,41.1,29.11,WNW,293,6.9,10.5,79,0.00,,,0.00,WUHU216HW,2013-11-18 05:06:00,
2013-11-18 00:11:00,47.2,41.0,29.11,West,270,3.8,13.6,79,0.00,,,0.00,WUHU216HW,2013-11-18 05:11:00,
2013-11-18 00:16:00,47.2,41.0,29.11,West,270,4.5,13.6,79,0.00,,,0.00,WUHU216HW,2013-11-18 05:16:00,
2013-11-18 00:21:00,47.2,41.0,29.11,NNE,23,4.0,10.1,79,0.00,,,0.00,WUHU216HW,2013-11-18 05:21:00,
2013-11-18 00:26:00,47.2,41.0,29.12,NNW,338,8.1,12.8,79,0.00,,,0.00,WUHU216HW,2013-11-18 05:26:00,
2013-11-18 00:31:00,47.2,41.0,29.12,North,0,8.5,12.8,79,0.00,,,0.00,WUHU216HW,2013-11-18 05:31:00,
2013-11-18 00:36:00,47.0,40.1,29.13,NNW,338,6.0,12.3,77,0.00,,,0.00,WUHU216HW,2013-11-18 05:36:00,
2013-11-18 00:41:00,47.0,40.5,29.14,ENE,68,8.5,12.3,78,0.00,,,0.00,WUHU216HW,2013-11-18 05:41:00,
2013-11-18 00:46:00,47.0,40.5,29.14,SW,225,5.4,11.2,78,0.00,,,0.00,WUHU216HW,2013-11-18 05:46:00,
2013-11-18 00:51:00,47.0,40.5,29.14,NW,315,3.4,10.1,78,0.00,,,0.00,WUHU216HW,2013-11-18 05:51:00,
2013-11-18 00:56:00,46.8,40.0,29.15,NNW,338,4.0,9.4,77,0.00,,,0.00,WUHU216HW,2013-11-18 05:56:00,
2013-11-18 01:01:00,46.8,39.3,29.15,West,270,4.7,14.1,75,0.00,,,0.00,WUHU216HW,2013-11-18 06:01:00,
2013-11-18 01:06:00,46.8,39.0,29.15,NNW,338,5.1,14.1,74,0.00,,,0.00,WUHU216HW,2013-11-18 06:06:00,
2013-11-18 01:11:00,46.8,39.0,29.15,NW,315,3.1,9.2,74,0.00,,,0.00,WUHU216HW,2013-11-18 06:11:00,
2013-11-18 01:16:00,46.8,39.0,29.16,West,270,6.5,9.4,74,0.00,,,0.00,WUHU216HW,2013-11-18 06:16:00,
2013-11-18 01:21:00,46.8,39.3,29.16,WSW,248,6.3,9.4,75,0.00,,,0.00,WUHU216HW,2013-11-18 06:21:00,
2013-11-18 01:26:00,46.6,39.2,29.16,WNW,293,4.0,9.2,75,0.00,,,0.00,WUHU216HW,2013-11-18 06:26:00,
2013-11-18 01:31:00,46.6,39.2,29.17,WNW,293,0.9,8.3,75,0.00,,,0.00,WUHU216HW,2013-11-18 06:31:00,
2013-11-18 01:36:00,46.4,39.0,29.17,NW,315,1.1,8.5,75,0.00,,,0.00,WUHU216HW,2013-11-18 06:36:00,
2013-11-18 01:41:00,46.6,39.5,29.17,NW,315,6.0,10.5,76,0.00,,,0.00,WUHU216HW,2013-11-18 06:41:00,
2013-11-18 01:46:00,46.4,39.0,29.18,West,270,10.1,10.5,75,0.00,,,0.00,WUHU216HW,2013-11-18 06:46:00,
2013-11-18 01:51:00,46.6,38.8,29.18,West,270,3.1,11.4,74,0.00,,,0.00,WUHU216HW,2013-11-18 06:51:00,
2013-11-18 01:56:00,46.6,38.4,29.19,NNW,338,6.3,12.3,73,0.00,,,0.00,WUHU216HW,2013-11-18 06:56:00,
2013-11-18 02:01:00,46.6,38.1,29.19,WNW,293,8.5,12.3,72,0.00,,,0.00,WUHU216HW,2013-11-18 07:01:00,
2013-11-18 02:06:00,46.6,37.8,29.19,NW,315,4.3,10.3,71,0.00,,,0.00,WUHU216HW,2013-11-18 07:06:00,
2013-11-18 02:11:00,46.4,37.6,29.19,West,270,5.8,10.3,71,0.00,,,0.00,WUHU216HW,2013-11-18 07:11:00,
2013-11-18 02:16:00,46.4,37.3,29.19,NW,315,3.1,7.6,70,0.00,,,0.00,WUHU216HW,2013-11-18 07:16:00,
2013-11-18 02:21:00,46.4,38.0,29.19,NW,315,4.0,7.6,72,0.00,,,0.00,WUHU216HW,2013-11-18 07:21:00,
2013-11-18 02:26:00,46.3,37.8,29.20,West,270,4.0,7.6,72,0.00,,,0.00,WUHU216HW,2013-11-18 07:26:00,
2013-11-18 02:31:00,46.1,37.6,29.20,West,270,3.8,7.6,72,0.00,,,0.00,WUHU216HW,2013-11-18 07:31:00,
2013-11-18 02:36:00,46.1,37.6,29.20,WSW,248,2.5,7.6,72,0.00,,,0.00,WUHU216HW,2013-11-18 07:36:00,
2013-11-18 02:41:00,45.9,37.7,29.20,WSW,248,2.5,8.5,73,0.00,,,0.00,WUHU216HW,2013-11-18 07:41:00,
2013-11-18 02:46:00,45.9,37.5,29.21,WSW,248,5.4,12.5,72,0.00,,,0.00,WUHU216HW,2013-11-18 07:46:00,
2013-11-18 02:51:00,45.9,37.1,29.21,NW,315,3.6,12.5,71,0.00,,,0.00,WUHU216HW,2013-11-18 07:51:00,
2013-11-18 02:56:00,45.7,36.9,29.21,ESE,113,3.4,9.6,71,0.00,,,0.00,WUHU216HW,2013-11-18 07:56:00,
2013-11-18 03:01:00,45.5,36.4,29.21,West,270,4.7,10.5,70,0.00,,,0.00,WUHU216HW,2013-11-18 08:01:00,
2013-11-18 03:06:00,45.4,35.8,29.21,West,270,9.2,10.5,69,0.00,,,0.00,WUHU216HW,2013-11-18 08:06:00,
2013-11-18 03:11:00,45.4,36.2,29.22,West,270,4.0,9.6,70,0.00,,,0.00,WUHU216HW,2013-11-18 08:11:00,
2013-11-18 03:16:00,45.2,36.0,29.21,NW,315,1.6,11.0,70,0.00,,,0.00,WUHU216HW,2013-11-18 08:16:00,
2013-11-18 03:21:00,45.0,36.2,29.22,West,270,2.7,11.0,71,0.00,,,0.00,WUHU216HW,2013-11-18 08:21:00,
2013-11-18 03:26:00,44.6,36.2,29.22,NW,315,2.9,8.5,72,0.00,,,0.00,WUHU216HW,2013-11-18 08:26:00,
2013-11-18 03:31:00,44.5,36.4,29.22,NNW,338,2.0,8.3,73,0.00,,,0.00,WUHU216HW,2013-11-18 08:31:00,
2013-11-18 03:36:00,44.3,36.2,29.22,West,270,5.4,6.3,73,0.00,,,0.00,WUHU216HW,2013-11-18 08:36:00,
2013-11-18 03:41:00,44.3,36.5,29.23,WNW,293,6.9,8.3,74,0.00,,,0.00,WUHU216HW,2013-11-18 08:41:00,
2013-11-18 03:46:00,44.3,36.5,29.22,West,270,2.7,9.2,74,0.00,,,0.00,WUHU216HW,2013-11-18 08:46:00,
2013-11-18 03:51:00,44.3,36.5,29.23,WSW,248,2.5,9.2,74,0.00,,,0.00,WUHU216HW,2013-11-18 08:51:00,
2013-11-18 03:56:00,44.3,36.5,29.24,NW,315,5.6,7.8,74,0.00,,,0.00,WUHU216HW,2013-11-18 08:56:00,
2013-11-18 04:01:00,44.3,36.2,29.24,WNW,293,4.0,7.8,73,0.00,,,0.00,WUHU216HW,2013-11-18 09:01:00,
2013-11-18 04:06:00,44.3,36.2,29.24,West,270,4.0,9.8,73,0.00,,,0.00,WUHU216HW,2013-11-18 09:06:00,
2013-11-18 04:11:00,44.3,36.2,29.25,SW,225,5.8,9.8,73,0.00,,,0.00,WUHU216HW,2013-11-18 09:11:00,
2013-11-18 04:16:00,44.3,36.2,29.25,West,270,5.1,8.5,73,0.00,,,0.00,WUHU216HW,2013-11-18 09:16:00,
2013-11-18 04:21:00,44.3,36.2,29.25,WSW,248,1.3,11.4,73,0.00,,,0.00,WUHU216HW,2013-11-18 09:21:00,
2013-11-18 04:26:00,44.3,36.5,29.26,NW,315,2.2,11.4,74,0.00,,,0.00,WUHU216HW,2013-11-18 09:26:00,
2013-11-18 04:31:00,44.3,36.2,29.26,SW,225,4.3,8.3,73,0.00,,,0.00,WUHU216HW,2013-11-18 09:31:00,
2013-11-18 04:36:00,44.1,36.0,29.26,NW,315,3.8,8.3,73,0.00,,,0.00,WUHU216HW,2013-11-18 09:36:00,
2013-11-18 04:41:00,44.3,36.2,29.26,WNW,293,5.6,8.9,73,0.00,,,0.00,WUHU216HW,2013-11-18 09:41:00,
2013-11-18 04:46:00,44.1,36.0,29.26,SSW,203,6.5,8.9,73,0.00,,,0.00,WUHU216HW,2013-11-18 09:46:00,
2013-11-18 04:51:00,44.1,36.0,29.26,WNW,293,2.5,8.5,73,0.00,,,0.00,WUHU216HW,2013-11-18 09:51:00,
2013-11-18 04:56:00,43.9,35.8,29.26,West,270,4.7,8.9,73,0.00,,,0.00,WUHU216HW,2013-11-18 09:56:00,
2013-11-18 05:02:00,43.9,35.5,29.26,NW,315,5.6,9.8,72,0.00,,,0.00,WUHU216HW,2013-11-18 10:02:00,
2013-11-18 05:07:00,43.7,35.0,29.27,NW,315,6.5,9.8,71,0.00,,,0.00,WUHU216HW,2013-11-18 10:07:00,
2013-11-18 05:12:00,43.7,35.0,29.28,West,270,6.3,9.2,71,0.00,,,0.00,WUHU216HW,2013-11-18 10:12:00,
2013-11-18 05:17:00,43.7,34.7,29.28,SW,225,2.5,13.4,70,0.00,,,0.00,WUHU216HW,2013-11-18 10:17:00,
2013-11-18 05:22:00,43.7,35.0,29.29,West,270,8.9,13.4,71,0.00,,,0.00,WUHU216HW,2013-11-18 10:22:00,
2013-11-18 05:27:00,43.7,35.0,29.29,NNW,338,2.9,8.9,71,0.00,,,0.00,WUHU216HW,2013-11-18 10:27:00,
2013-11-18 05:32:00,43.7,35.0,29.29,NW,315,2.7,7.4,71,0.00,,,0.00,WUHU216HW,2013-11-18 10:32:00,
2013-11-18 05:37:00,43.7,35.0,29.29,West,270,1.3,6.9,71,0.00,,,0.00,WUHU216HW,2013-11-18 10:37:00,
2013-11-18 05:42:00,43.7,35.0,29.29,NNW,338,3.1,8.1,71,0.00,,,0.00,WUHU216HW,2013-11-18 10:42:00,
2013-11-18 05:47:00,43.6,35.2,29.29,NNW,338,2.5,8.1,72,0.00,,,0.00,WUHU216HW,2013-11-18 10:47:00,
2013-11-18 05:52:00,43.6,35.2,29.29,NNW,338,1.1,6.5,72,0.00,,,0.00,WUHU216HW,2013-11-18 10:52:00,
2013-11-18 05:57:00,43.6,35.5,29.30,WSW,248,4.5,6.5,73,0.00,,,0.00,WUHU216HW,2013-11-18 10:57:00,
2013-11-18 06:02:00,43.6,35.8,29.30,WSW,248,2.7,8.5,74,0.00,,,0.00,WUHU216HW,2013-11-18 11:02:00,
2013-11-18 06:07:00,43.4,35.3,29.30,SSE,158,1.8,8.5,73,0.00,,,0.00,WUHU216HW,2013-11-18 11:07:00,
2013-11-18 06:12:00,43.2,34.8,29.30,WNW,293,5.4,7.6,72,0.00,,,0.00,WUHU216HW,2013-11-18 11:12:00,
2013-11-18 06:17:00,42.8,34.2,29.31,NW,315,2.0,6.5,71,0.00,,,0.00,WUHU216HW,2013-11-18 11:17:00,
2013-11-18 06:22:00,42.8,34.5,29.30,West,270,3.4,9.2,72,0.00,,,0.00,WUHU216HW,2013-11-18 11:22:00,
2013-11-18 06:27:00,42.7,34.3,29.31,West,270,4.5,9.2,72,0.00,,,0.00,WUHU216HW,2013-11-18 11:27:00,
2013-11-18 06:32:00,42.7,34.7,29.30,WSW,248,3.8,7.8,73,0.00,,,0.00,WUHU216HW,2013-11-18 11:32:00,
2013-11-18 06:37:00,42.8,34.8,29.30,SW,225,3.4,7.8,73,0.00,,,0.00,WUHU216HW,2013-11-18 11:37:00,
2013-11-18 06:42:00,42.8,35.1,29.30,SW,225,1.1,6.9,74,0.00,,,0.00,WUHU216HW,2013-11-18 11:42:00,
2013-11-18 06:47:00,42.8,35.1,29.30,WNW,293,6.3,6.5,74,0.00,,,0.00,WUHU216HW,2013-11-18 11:47:00,
2013-11-18 06:52:00,43.0,35.3,29.31,SSW,203,6.3,8.3,74,0.00,,,0.00,WUHU216HW,2013-11-18 11:52:00,
2013-11-18 06:57:00,43.0,35.3,29.31,WNW,293,3.4,8.5,74,0.00,,,0.00,WUHU216HW,2013-11-18 11:57:00,
2013-11-18 07:02:00,43.0,35.0,29.31,West,270,4.7,8.5,73,0.00,,,0.00,WUHU216HW,2013-11-18 12:02:00,
2013-11-18 07:07:00,42.8,34.8,29.30,WNW,293,3.6,9.8,73,0.00,,,0.00,WUHU216HW,2013-11-18 12:07:00,
2013-11-18 07:12:00,42.8,34.5,29.30,WNW,293,2.9,9.8,72,0.00,,,0.00,WUHU216HW,2013-11-18 12:12:00,
2013-11-18 07:17:00,42.8,34.5,29.30,SSE,158,2.9,8.1,72,0.00,,,0.00,WUHU216HW,2013-11-18 12:17:00,
2013-11-18 07:22:00,42.8,34.5,29.31,North,0,4.7,8.1,72,0.00,,,0.00,WUHU216HW,2013-11-18 12:22:00,
2013-11-18 07:27:00,42.8,34.2,29.31,NW,315,2.0,6.5,71,0.00,,,0.00,WUHU216HW,2013-11-18 12:27:00,
2013-11-18 07:32:00,42.8,34.5,29.31,WSW,248,2.2,6.5,72,0.00,,,0.00,WUHU216HW,2013-11-18 12:32:00,
2013-11-18 07:37:00,42.7,34.3,29.31,WSW,248,4.0,8.3,72,0.00,,,0.00,WUHU216HW,2013-11-18 12:37:00,
2013-11-18 07:42:00,42.5,34.1,29.31,SSW,203,2.9,8.3,72,0.00,,,0.00,WUHU216HW,2013-11-18 12:42:00,
2013-11-18 07:47:00,42.3,33.7,29.31,WNW,293,2.5,8.9,71,0.00,,,0.00,WUHU216HW,2013-11-18 12:47:00,
2013-11-18 07:52:00,42.3,33.7,29.32,SSE,158,2.2,8.9,71,0.00,,,0.00,WUHU216HW,2013-11-18 12:52:00,
2013-11-18 07:57:00,42.1,33.5,29.32,NNW,338,3.1,10.7,71,0.00,,,0.00,WUHU216HW,2013-11-18 12:57:00,
2013-11-18 08:02:00,42.3,33.7,29.32,SW,225,2.5,10.7,71,0.00,,,0.00,WUHU216HW,2013-11-18 13:02:00,
2013-11-18 08:07:00,42.3,33.9,29.32,SW,225,4.5,7.2,72,0.00,,,0.00,WUHU216HW,2013-11-18 13:07:00,
2013-11-18 08:12:00,42.3,33.9,29.32,West,270,3.4,10.7,72,0.00,,,0.00,WUHU216HW,2013-11-18 13:12:00,
2013-11-18 08:17:00,42.5,33.9,29.32,West,270,5.6,10.7,71,0.00,,,0.00,WUHU216HW,2013-11-18 13:17:00,
2013-11-18 08:22:00,42.8,34.5,29.32,WSW,248,2.5,10.3,72,0.00,,,0.00,WUHU216HW,2013-11-18 13:22:00,
2013-11-18 08:27:00,43.0,34.7,29.32,West,270,4.3,7.6,72,0.00,,,0.00,WUHU216HW,2013-11-18 13:27:00,
2013-11-18 08:32:00,43.2,35.2,29.32,WSW,248,2.9,7.6,73,0.00,,,0.00,WUHU216HW,2013-11-18 13:32:00,
2013-11-18 08:37:00,43.6,35.2,29.32,WSW,248,5.1,8.3,72,0.00,,,0.00,WUHU216HW,2013-11-18 13:37:00,
2013-11-18 08:42:00,43.6,35.2,29.33,WNW,293,1.3,9.6,72,0.00,,,0.00,WUHU216HW,2013-11-18 13:42:00,
2013-11-18 08:47:00,43.4,34.7,29.33,WNW,293,3.1,9.6,71,0.00,,,0.00,WUHU216HW,2013-11-18 13:47:00,
2013-11-18 08:52:00,43.6,34.8,29.34,West,270,2.9,9.6,71,0.00,,,0.00,WUHU216HW,2013-11-18 13:52:00,
2013-11-18 08:57:00,43.6,34.5,29.33,NW,315,2.9,6.7,70,0.00,,,0.00,WUHU216HW,2013-11-18 13:57:00,
2013-11-18 09:02:00,43.7,34.3,29.33,NW,315,4.0,7.2,69,0.00,,,0.00,WUHU216HW,2013-11-18 14:02:00,
2013-11-18 09:07:00,43.9,34.0,29.33,WSW,248,8.3,8.9,68,0.00,,,0.00,WUHU216HW,2013-11-18 14:07:00,
2013-11-18 09:12:00,43.9,34.0,29.33,West,270,1.8,9.6,68,0.00,,,0.00,WUHU216HW,2013-11-18 14:12:00,
2013-11-18 09:17:00,43.9,34.5,29.34,SW,225,5.1,9.6,69,0.00,,,0.00,WUHU216HW,2013-11-18 14:17:00,
2013-11-18 09:22:00,43.9,34.0,29.34,NW,315,4.3,11.2,68,0.00,,,0.00,WUHU216HW,2013-11-18 14:22:00,
2013-11-18 09:27:00,43.9,34.0,29.34,NNW,338,2.2,11.2,68,0.00,,,0.00,WUHU216HW,2013-11-18 14:27:00,
2013-11-18 09:32:00,44.3,34.4,29.34,North,0,2.9,7.8,68,0.00,,,0.00,WUHU216HW,2013-11-18 14:32:00,
2013-11-18 09:37:00,44.3,34.4,29.34,NW,315,3.6,10.5,68,0.00,,,0.00,WUHU216HW,2013-11-18 14:37:00,
2013-11-18 09:42:00,44.3,34.0,29.34,West,270,3.4,10.5,67,0.00,,,0.00,WUHU216HW,2013-11-18 14:42:00,
2013-11-18 09:47:00,43.9,34.0,29.36,WSW,248,2.5,6.5,68,0.00,,,0.00,WUHU216HW,2013-11-18 14:47:00,
2013-11-18 09:52:00,44.1,34.2,29.36,WSW,248,2.9,6.7,68,0.00,,,0.00,WUHU216HW,2013-11-18 14:52:00,
2013-11-18 09:57:00,43.9,34.0,29.36,South,180,3.6,8.9,68,0.00,,,0.00,WUHU216HW,2013-11-18 14:57:00,
2013-11-18 10:02:00,43.9,34.5,29.36,NE,45,3.1,12.1,69,0.00,,,0.00,WUHU216HW,2013-11-18 15:02:00,
2013-11-18 10:07:00,43.9,34.5,29.36,NW,315,7.6,12.1,69,0.00,,,0.00,WUHU216HW,2013-11-18 15:07:00,
2013-11-18 10:12:00,43.9,34.0,29.36,North,0,2.9,9.8,68,0.00,,,0.00,WUHU216HW,2013-11-18 15:12:00,
2013-11-18 10:17:00,43.9,34.0,29.36,NW,315,2.7,9.8,68,0.00,,,0.00,WUHU216HW,2013-11-18 15:17:00,
2013-11-18 10:22:00,43.9,33.7,29.37,NW,315,8.9,11.6,67,0.00,,,0.00,WUHU216HW,2013-11-18 15:22:00,
2013-11-18 10:27:00,43.7,33.5,29.37,West,270,4.3,11.6,67,0.00,,,0.00,WUHU216HW,2013-11-18 15:27:00,
2013-11-18 10:32:00,43.9,33.3,29.37,West,270,6.7,9.4,66,0.00,,,0.00,WUHU216HW,2013-11-18 15:32:00,
2013-11-18 10:37:00,44.6,33.2,29.37,SW,225,4.7,9.4,64,0.00,,,0.00,WUHU216HW,2013-11-18 15:37:00,
2013-11-18 10:42:00,44.6,31.7,29.37,SW,225,5.6,9.2,60,0.00,,,0.00,WUHU216HW,2013-11-18 15:42:00,
2013-11-18 10:47:00,44.1,31.1,29.37,West,270,4.3,9.8,60,0.00,,,0.00,WUHU216HW,2013-11-18 15:47:00,
2013-11-18 10:51:00,43.9,31.3,29.37,West,270,2.9,9.8,61,0.00,,,0.00,WUHU216HW,2013-11-18 15:51:00,
2013-11-18 10:56:00,43.9,32.1,29.37,WNW,293,2.7,8.5,63,0.00,,,0.00,WUHU216HW,2013-11-18 15:56:00,
2013-11-18 11:01:00,43.9,32.1,29.38,West,270,3.4,7.6,63,0.00,,,0.00,WUHU216HW,2013-11-18 16:01:00,
2013-11-18 11:06:00,43.6,31.8,29.39,WNW,293,5.1,7.6,63,0.00,,,0.00,WUHU216HW,2013-11-18 16:06:00,
2013-11-18 11:11:00,43.6,32.1,29.39,WNW,293,5.6,9.4,64,0.00,,,0.00,WUHU216HW,2013-11-18 16:11:00,
2013-11-18 11:16:00,43.4,31.6,29.39,SSW,203,8.1,10.3,63,0.00,,,0.00,WUHU216HW,2013-11-18 16:16:00,
2013-11-18 11:21:00,43.6,31.4,29.39,NW,315,5.4,10.3,62,0.00,,,0.00,WUHU216HW,2013-11-18 16:21:00,
2013-11-18 11:26:00,43.9,32.1,29.39,WNW,293,7.8,9.2,63,0.00,,,0.00,WUHU216HW,2013-11-18 16:26:00,
2013-11-18 11:31:00,44.6,32.0,29.40,West,270,3.1,9.8,61,0.00,,,0.00,WUHU216HW,2013-11-18 16:31:00,
2013-11-18 11:36:00,44.3,30.9,29.40,North,0,5.6,9.8,59,0.00,,,0.00,WUHU216HW,2013-11-18 16:36:00,
2013-11-18 11:41:00,43.7,30.8,29.40,North,0,2.5,9.4,60,0.00,,,0.00,WUHU216HW,2013-11-18 16:41:00,
2013-11-18 11:46:00,43.6,31.0,29.40,NNW,338,2.7,9.2,61,0.00,,,0.00,WUHU216HW,2013-11-18 16:46:00,
2013-11-18 11:51:00,43.6,30.6,29.40,NW,315,3.4,9.6,60,0.00,,,0.00,WUHU216HW,2013-11-18 16:51:00,
2013-11-18 11:56:00,43.2,30.6,29.40,NW,315,5.1,10.3,61,0.00,,,0.00,WUHU216HW,2013-11-18 16:56:00,
2013-11-18 12:01:00,42.5,30.3,29.40,North,0,4.7,10.3,62,0.00,,,0.00,WUHU216HW,2013-11-18 17:01:00,
2013-11-18 12:06:00,42.1,30.4,29.40,West,270,2.5,11.4,63,0.00,,,0.00,WUHU216HW,2013-11-18 17:06:00,
2013-11-18 12:11:00,41.9,30.3,29.40,NNW,338,6.0,11.4,63,0.00,,,0.00,WUHU216HW,2013-11-18 17:11:00,
2013-11-18 12:16:00,41.8,30.9,29.40,NNW,338,3.4,8.1,65,0.00,,,0.00,WUHU216HW,2013-11-18 17:16:00,
2013-11-18 12:21:00,41.8,30.9,29.41,NE,45,4.9,8.5,65,0.00,,,0.00,WUHU216HW,2013-11-18 17:21:00,
2013-11-18 12:26:00,41.8,31.2,29.41,NNE,23,2.5,8.5,66,0.00,,,0.00,WUHU216HW,2013-11-18 17:26:00,
2013-11-18 12:31:00,41.6,31.1,29.41,SW,225,4.9,11.0,66,0.00,,,0.00,WUHU216HW,2013-11-18 17:31:00,
2013-11-18 12:36:00,41.4,31.2,29.41,WSW,248,3.6,11.0,67,0.00,,,0.00,WUHU216HW,2013-11-18 17:36:00,
2013-11-18 12:41:00,41.4,31.2,29.42,NW,315,3.8,8.5,67,0.00,,,0.00,WUHU216HW,2013-11-18 17:41:00,
2013-11-18 12:46:00,41.2,31.1,29.42,West,270,3.1,8.5,67,0.00,,,0.00,WUHU216HW,2013-11-18 17:46:00,
2013-11-18 12:51:00,41.0,30.2,29.42,WSW,248,6.3,9.4,65,0.00,,,0.00,WUHU216HW,2013-11-18 17:51:00,
2013-11-18 12:56:00,40.9,30.0,29.42,West,270,4.0,9.4,65,0.00,,,0.00,WUHU216HW,2013-11-18 17:56:00,
2013-11-18 13:01:00,40.7,30.2,29.42,West,270,2.2,6.3,66,0.00,,,0.00,WUHU216HW,2013-11-18 18:01:00,
2013-11-18 13:06:00,40.7,29.8,29.43,SSW,203,9.2,11.4,65,0.00,,,0.00,WUHU216HW,2013-11-18 18:06:00,
2013-11-18 13:11:00,40.7,29.8,29.43,NNW,338,4.5,11.4,65,0.00,,,0.00,WUHU216HW,2013-11-18 18:11:00,
2013-11-18 13:16:00,40.7,30.2,29.43,NW,315,1.1,9.6,66,0.00,,,0.00,WUHU216HW,2013-11-18 18:16:00,
2013-11-18 13:21:00,40.7,30.2,29.44,WNW,293,4.5,7.6,66,0.00,,,0.00,WUHU216HW,2013-11-18 18:21:00,
2013-11-18 13:26:00,40.5,30.0,29.44,WSW,248,3.1,7.6,66,0.00,,,0.00,WUHU216HW,2013-11-18 18:26:00,
2013-11-18 13:31:00,40.5,30.3,29.45,WSW,248,2.5,7.6,67,0.00,,,0.00,WUHU216HW,2013-11-18 18:31:00,
2013-11-18 13:36:00,40.5,30.3,29.45,SSW,203,2.5,6.0,67,0.00,,,0.00,WUHU216HW,2013-11-18 18:36:00,
2013-11-18 13:41:00,40.3,30.2,29.45,North,0,4.0,6.7,67,0.00,,,0.00,WUHU216HW,2013-11-18 18:41:00,
2013-11-18 13:46:00,40.3,30.2,29.45,NNW,338,2.5,8.7,67,0.00,,,0.00,WUHU216HW,2013-11-18 18:46:00,
2013-11-18 13:51:00,40.3,29.8,29.45,WNW,293,2.5,10.1,66,0.00,,,0.00,WUHU216HW,2013-11-18 18:51:00,
2013-11-18 13:56:00,40.1,29.6,29.46,NNW,338,3.4,10.1,66,0.00,,,0.00,WUHU216HW,2013-11-18 18:56:00,
2013-11-18 14:01:00,40.0,29.4,29.46,NW,315,6.7,8.5,66,0.00,,,0.00,WUHU216HW,2013-11-18 19:01:00,
2013-11-18 14:06:00,40.0,29.1,29.46,WSW,248,5.4,9.2,65,0.00,,,0.00,WUHU216HW,2013-11-18 19:06:00,
2013-11-18 14:11:00,39.8,29.3,29.47,WNW,293,5.4,9.2,66,0.00,,,0.00,WUHU216HW,2013-11-18 19:11:00,
2013-11-18 14:16:00,39.8,29.3,29.46,NNW,338,1.6,5.8,66,0.00,,,0.00,WUHU216HW,2013-11-18 19:16:00,
2013-11-18 14:21:00,39.6,29.4,29.47,NNE,23,4.3,5.8,67,0.00,,,0.00,WUHU216HW,2013-11-18 19:21:00,
2013-11-18 14:26:00,39.4,29.3,29.47,WNW,293,7.6,9.8,67,0.00,,,0.00,WUHU216HW,2013-11-18 19:26:00,
2013-11-18 14:31:00,39.4,29.3,29.48,NNW,338,1.6,11.2,67,0.00,,,0.00,WUHU216HW,2013-11-18 19:31:00,
2013-11-18 14:36:00,39.2,29.5,29.48,SW,225,4.0,11.2,68,0.00,,,0.00,WUHU216HW,2013-11-18 19:36:00,
2013-11-18 14:41:00,38.9,29.5,29.48,NNW,338,1.8,9.4,69,0.00,,,0.00,WUHU216HW,2013-11-18 19:41:00,
2013-11-18 14:46:00,38.7,29.8,29.49,NNE,23,2.5,9.4,70,0.00,,,0.00,WUHU216HW,2013-11-18 19:46:00,
2013-11-18 14:51:00,38.5,29.6,29.50,NW,315,1.1,7.2,70,0.00,,,0.00,WUHU216HW,2013-11-18 19:51:00,
2013-11-18 14:56:00,38.2,29.6,29.50,WSW,248,1.8,7.2,71,0.00,,,0.00,WUHU216HW,2013-11-18 19:56:00,
2013-11-18 15:01:00,38.0,29.4,29.51,NNW,338,3.6,7.2,71,0.00,,,0.00,WUHU216HW,2013-11-18 20:01:00,
2013-11-18 15:06:00,37.8,29.3,29.51,WNW,293,2.9,9.2,71,0.00,,,0.00,WUHU216HW,2013-11-18 20:06:00,
2013-11-18 15:11:00,37.8,29.3,29.51,SSW,203,4.0,9.2,71,0.00,,,0.00,WUHU216HW,2013-11-18 20:11:00,
2013-11-18 15:16:00,37.8,29.3,29.51,NW,315,4.0,5.8,71,0.00,,,0.00,WUHU216HW,2013-11-18 20:16:00,
2013-11-18 15:21:00,37.8,28.5,29.52,North,0,2.7,4.7,69,0.00,,,0.00,WUHU216HW,2013-11-18 20:21:00,
2013-11-18 15:27:00,37.8,28.2,29.52,West,270,3.4,8.9,68,0.00,,,0.00,WUHU216HW,2013-11-18 20:27:00,
2013-11-18 15:32:00,37.8,28.2,29.53,NW,315,3.4,8.9,68,0.00,,,0.00,WUHU216HW,2013-11-18 20:32:00,
2013-11-18 15:36:00,37.6,28.0,29.53,ENE,68,4.7,9.2,68,0.00,,,0.00,WUHU216HW,2013-11-18 20:36:00,
2013-11-18 15:41:00,37.4,27.9,29.54,NNW,338,0.9,9.2,68,0.00,,,0.00,WUHU216HW,2013-11-18 20:41:00,
2013-11-18 15:46:00,37.4,27.9,29.54,West,270,4.5,7.6,68,0.00,,,0.00,WUHU216HW,2013-11-18 20:46:00,
2013-11-18 15:52:00,37.3,27.3,29.54,NW,315,2.7,7.6,67,0.00,,,0.00,WUHU216HW,2013-11-18 20:52:00,
2013-11-18 15:57:00,37.1,27.2,29.55,NNW,338,1.1,8.7,67,0.00,,,0.00,WUHU216HW,2013-11-18 20:57:00,
2013-11-18 16:02:00,37.1,27.6,29.55,NW,315,4.3,8.7,68,0.00,,,0.00,WUHU216HW,2013-11-18 21:02:00,
2013-11-18 16:07:00,36.9,27.4,29.55,NNW,338,3.4,7.8,68,0.00,,,0.00,WUHU216HW,2013-11-18 21:07:00,
2013-11-18 16:12:00,36.7,27.6,29.56,West,270,2.5,7.4,69,0.00,,,0.00,WUHU216HW,2013-11-18 21:12:00,
2013-11-18 16:17:00,36.7,27.6,29.57,WNW,293,1.8,7.4,69,0.00,,,0.00,WUHU216HW,2013-11-18 21:17:00,
2013-11-18 16:22:00,36.7,27.6,29.58,NW,315,2.0,4.3,69,0.00,,,0.00,WUHU216HW,2013-11-18 21:22:00,
2013-11-18 16:27:00,36.7,27.6,29.58,North,0,3.4,4.7,69,0.00,,,0.00,WUHU216HW,2013-11-18 21:27:00,
2013-11-18 16:32:00,36.7,27.6,29.58,WNW,293,4.5,6.3,69,0.00,,,0.00,WUHU216HW,2013-11-18 21:32:00,
2013-11-18 16:37:00,36.7,27.6,29.58,West,270,4.9,8.1,69,0.00,,,0.00,WUHU216HW,2013-11-18 21:37:00,
2013-11-18 16:42:00,36.5,27.7,29.58,NNW,338,3.4,8.1,70,0.00,,,0.00,WUHU216HW,2013-11-18 21:42:00,
2013-11-18 16:47:00,36.5,27.7,29.59,NW,315,2.7,6.9,70,0.00,,,0.00,WUHU216HW,2013-11-18 21:47:00,
2013-11-18 16:52:00,36.4,27.2,29.59,South,180,2.7,7.2,69,0.00,,,0.00,WUHU216HW,2013-11-18 21:52:00,
2013-11-18 16:57:00,36.2,27.4,29.59,NW,315,1.8,7.2,70,0.00,,,0.00,WUHU216HW,2013-11-18 21:57:00,
2013-11-18 17:02:00,36.2,27.0,29.60,NNW,338,2.2,6.9,69,0.00,,,0.00,WUHU216HW,2013-11-18 22:02:00,
2013-11-18 17:07:00,36.0,27.2,29.60,West,270,4.0,6.7,70,0.00,,,0.00,WUHU216HW,2013-11-18 22:07:00,
2013-11-18 17:12:00,36.0,27.2,29.60,WNW,293,2.5,7.8,70,0.00,,,0.00,WUHU216HW,2013-11-18 22:12:00,
2013-11-18 17:17:00,36.0,27.2,29.61,WNW,293,7.2,8.7,70,0.00,,,0.00,WUHU216HW,2013-11-18 22:17:00,
2013-11-18 17:22:00,36.0,27.2,29.61,WNW,293,1.1,8.7,70,0.00,,,0.00,WUHU216HW,2013-11-18 22:22:00,
2013-11-18 17:27:00,35.8,27.0,29.62,North,0,1.6,7.2,70,0.00,,,0.00,WUHU216HW,2013-11-18 22:27:00,
2013-11-18 17:32:00,35.6,26.5,29.62,NW,315,3.6,7.6,69,0.00,,,0.00,WUHU216HW,2013-11-18 22:32:00,
2013-11-18 17:37:00,35.6,26.1,29.62,North,0,2.2,7.6,68,0.00,,,0.00,WUHU216HW,2013-11-18 22:37:00,
2013-11-18 17:42:00,35.5,25.9,29.63,NNW,338,1.8,5.4,68,0.00,,,0.00,WUHU216HW,2013-11-18 22:42:00,
2013-11-18 17:47:00,35.3,25.4,29.63,North,0,2.5,4.9,67,0.00,,,0.00,WUHU216HW,2013-11-18 22:47:00,
2013-11-18 17:52:00,35.3,25.0,29.63,NW,315,3.1,6.0,66,0.00,,,0.00,WUHU216HW,2013-11-18 22:52:00,
2013-11-18 17:57:00,35.1,25.2,29.64,NW,315,1.8,7.4,67,0.00,,,0.00,WUHU216HW,2013-11-18 22:57:00,
2013-11-18 18:02:00,34.9,24.7,29.64,WNW,293,3.4,7.4,66,0.00,,,0.00,WUHU216HW,2013-11-18 23:02:00,
2013-11-18 18:07:00,34.9,24.3,29.64,NNW,338,1.8,6.5,65,0.00,,,0.00,WUHU216HW,2013-11-18 23:07:00,
2013-11-18 18:12:00,34.9,24.3,29.64,NNE,23,1.1,6.5,65,0.00,,,0.00,WUHU216HW,2013-11-18 23:12:00,
2013-11-18 18:17:00,34.9,23.9,29.64,NNW,338,2.5,5.8,64,0.00,,,0.00,WUHU216HW,2013-11-18 23:17:00,
2013-11-18 18:22:00,34.7,23.4,29.64,NNW,338,1.8,5.4,63,0.00,,,0.00,WUHU216HW,2013-11-18 23:22:00,
2013-11-18 18:27:00,34.7,23.4,29.65,WSW,248,6.3,7.8,63,0.00,,,0.00,WUHU216HW,2013-11-18 23:27:00,
2013-11-18 18:32:00,34.7,23.4,29.64,NNE,23,1.6,8.1,63,0.00,,,0.00,WUHU216HW,2013-11-18 23:32:00,
2013-11-18 18:37:00,34.7,23.4,29.65,West,270,6.3,8.1,63,0.00,,,0.00,WUHU216HW,2013-11-18 23:37:00,
2013-11-18 18:42:00,34.7,23.8,29.65,NNW,338,2.9,8.3,64,0.00,,,0.00,WUHU216HW,2013-11-18 23:42:00,
2013-11-18 18:47:00,34.6,23.6,29.65,SW,225,4.0,8.3,64,0.00,,,0.00,WUHU216HW,2013-11-18 23:47:00,
2013-11-18 18:52:00,34.6,23.6,29.65,NNW,338,1.1,4.0,64,0.00,,,0.00,WUHU216HW,2013-11-18 23:52:00,
2013-11-18 18:57:00,34.6,23.6,29.65,NNW,338,1.3,4.7,64,0.00,,,0.00,WUHU216HW,2013-11-18 23:57:00,
2013-11-18 19:02:00,34.6,23.6,29.65,NW,315,0.7,6.0,64,0.00,,,0.00,WUHU216HW,2013-11-19 00:02:00,
2013-11-18 19:07:00,34.6,23.6,29.65,West,270,2.9,6.0,64,0.00,,,0.00,WUHU216HW,2013-11-19 00:07:00,
2013-11-18 19:12:00,34.6,23.6,29.65,NNW,338,1.3,3.6,64,0.00,,,0.00,WUHU216HW,2013-11-19 00:12:00,
2013-11-18 19:17:00,34.6,23.6,29.66,NW,315,1.8,4.7,64,0.00,,,0.00,WUHU216HW,2013-11-19 00:17:00,
2013-11-18 19:22:00,34.6,23.9,29.66,WNW,293,5.4,5.4,65,0.00,,,0.00,WUHU216HW,2013-11-19 00:22:00,
2013-11-18 19:27:00,34.6,23.6,29.66,NW,315,1.8,9.8,64,0.00,,,0.00,WUHU216HW,2013-11-19 00:27:00,
2013-11-18 19:32:00,34.6,23.9,29.66,NW,315,3.8,9.8,65,0.00,,,0.00,WUHU216HW,2013-11-19 00:32:00,
2013-11-18 19:37:00,34.6,23.9,29.66,WNW,293,1.8,8.3,65,0.00,,,0.00,WUHU216HW,2013-11-19 00:37:00,
2013-11-18 19:42:00,34.6,23.9,29.66,North,0,1.6,8.3,65,0.00,,,0.00,WUHU216HW,2013-11-19 00:42:00,
2013-11-18 19:47:00,34.6,23.9,29.67,WNW,293,3.4,5.8,65,0.00,,,0.00,WUHU216HW,2013-11-19 00:47:00,
2013-11-18 19:52:00,34.6,23.9,29.67,NNW,338,0.7,4.5,65,0.00,,,0.00,WUHU216HW,2013-11-19 00:52:00,
2013-11-18 19:57:00,34.6,23.9,29.66,WNW,293,1.8,4.7,65,0.00,,,0.00,WUHU216HW,2013-11-19 00:57:00,
2013-11-18 20:02:00,34.6,23.9,29.67,SSW,203,1.3,4.7,65,0.00,,,0.00,WUHU216HW,2013-11-19 01:02:00,
2013-11-18 20:07:00,34.6,23.9,29.67,NW,315,0.9,4.0,65,0.00,,,0.00,WUHU216HW,2013-11-19 01:07:00,
2013-11-18 20:12:00,34.6,24.3,29.68,NNW,338,1.1,4.0,66,0.00,,,0.00,WUHU216HW,2013-11-19 01:12:00,
2013-11-18 20:17:00,34.6,24.3,29.68,WNW,293,1.8,5.1,66,0.00,,,0.00,WUHU216HW,2013-11-19 01:17:00,
2013-11-18 20:22:00,34.6,24.3,29.68,WNW,293,1.6,5.1,66,0.00,,,0.00,WUHU216HW,2013-11-19 01:22:00,
2013-11-18 20:27:00,34.6,24.3,29.68,NNW,338,3.4,5.4,66,0.00,,,0.00,WUHU216HW,2013-11-19 01:27:00,
2013-11-18 20:32:00,34.6,24.3,29.68,NW,315,3.6,5.4,66,0.00,,,0.00,WUHU216HW,2013-11-19 01:32:00,
2013-11-18 20:37:00,34.7,24.1,29.68,West,270,1.3,6.3,65,0.00,,,0.00,WUHU216HW,2013-11-19 01:37:00,
2013-11-18 20:42:00,34.7,24.5,29.68,NNW,338,2.0,6.3,66,0.00,,,0.00,WUHU216HW,2013-11-19 01:42:00,
2013-11-18 20:44:00,34.7,24.5,29.68,WSW,248,2.0,6.3,66,0.00,,,0.00,WUHU216HW,2013-11-19 01:44:00,
2013-11-18 20:49:00,34.7,24.5,29.68,NNW,338,1.8,4.5,66,0.00,,,0.00,WUHU216HW,2013-11-19 01:49:00,
2013-11-18 20:54:00,34.7,24.1,29.68,NNW,338,2.5,5.4,65,0.00,,,0.00,WUHU216HW,2013-11-19 01:54:00,
2013-11-18 20:59:00,34.7,24.1,29.69,NNW,338,1.8,5.4,65,0.00,,,0.00,WUHU216HW,2013-11-19 01:59:00,
2013-11-18 21:04:00,34.7,24.5,29.69,NW,315,1.3,5.4,66,0.00,,,0.00,WUHU216HW,2013-11-19 02:04:00,
2013-11-18 21:09:00,34.7,24.1,29.69,West,270,1.6,5.4,65,0.00,,,0.00,WUHU216HW,2013-11-19 02:09:00,
2013-11-18 21:14:00,34.7,24.1,29.69,WNW,293,2.7,5.4,65,0.00,,,0.00,WUHU216HW,2013-11-19 02:14:00,
2013-11-18 21:19:00,34.7,24.1,29.69,West,270,2.0,5.4,65,0.00,,,0.00,WUHU216HW,2013-11-19 02:19:00,
2013-11-18 21:24:00,34.7,24.5,29.69,NE,45,1.3,3.8,66,0.00,,,0.00,WUHU216HW,2013-11-19 02:24:00,
2013-11-18 21:29:00,34.7,24.5,29.69,West,270,2.5,2.7,66,0.00,,,0.00,WUHU216HW,2013-11-19 02:29:00,
2013-11-18 21:34:00,34.7,24.5,29.70,WNW,293,2.2,6.9,66,0.00,,,0.00,WUHU216HW,2013-11-19 02:34:00,
2013-11-18 21:39:00,34.7,24.5,29.69,WSW,248,2.2,6.9,66,0.00,,,0.00,WUHU216HW,2013-11-19 02:39:00,
2013-11-18 21:44:00,34.7,24.5,29.70,NNW,338,1.6,5.4,66,0.00,,,0.00,WUHU216HW,2013-11-19 02:44:00,
2013-11-18 21:49:00,34.7,24.5,29.69,WNW,293,1.3,5.4,66,0.00,,,0.00,WUHU216HW,2013-11-19 02:49:00,
2013-11-18 21:54:00,34.7,24.5,29.70,NNW,338,1.6,4.0,66,0.00,,,0.00,WUHU216HW,2013-11-19 02:54:00,
2013-11-18 21:59:00,34.7,24.5,29.71,NNW,338,0.7,4.0,66,0.00,,,0.00,WUHU216HW,2013-11-19 02:59:00,
2013-11-18 22:04:00,34.7,24.5,29.71,NW,315,3.1,4.0,66,0.00,,,0.00,WUHU216HW,2013-11-19 03:04:00,
2013-11-18 22:09:00,34.7,24.5,29.71,WNW,293,2.5,4.7,66,0.00,,,0.00,WUHU216HW,2013-11-19 03:09:00,
2013-11-18 22:14:00,34.7,24.5,29.71,West,270,2.7,4.7,66,0.00,,,0.00,WUHU216HW,2013-11-19 03:14:00,
2013-11-18 22:19:00,34.7,24.8,29.71,West,270,1.8,3.1,67,0.00,,,0.00,WUHU216HW,2013-11-19 03:19:00,
2013-11-18 22:24:00,34.7,24.8,29.71,West,270,1.1,4.0,67,0.00,,,0.00,WUHU216HW,2013-11-19 03:24:00,
2013-11-18 22:29:00,34.7,24.8,29.71,NNW,338,2.5,4.9,67,0.00,,,0.00,WUHU216HW,2013-11-19 03:29:00,
2013-11-18 22:34:00,34.7,24.8,29.72,NNW,338,2.2,4.9,67,0.00,,,0.00,WUHU216HW,2013-11-19 03:34:00,
2013-11-18 22:39:00,34.7,24.8,29.72,WSW,248,1.6,4.0,67,0.00,,,0.00,WUHU216HW,2013-11-19 03:39:00,
2013-11-18 22:44:00,34.7,24.5,29.72,WSW,248,2.2,5.8,66,0.00,,,0.00,WUHU216HW,2013-11-19 03:44:00,
2013-11-18 22:49:00,34.7,24.8,29.72,NW,315,1.1,5.8,67,0.00,,,0.00,WUHU216HW,2013-11-19 03:49:00,
2013-11-18 22:54:00,34.7,24.8,29.71,NNW,338,1.1,4.0,67,0.00,,,0.00,WUHU216HW,2013-11-19 03:54:00,
2013-11-18 22:59:00,34.7,24.8,29.72,NW,315,2.0,4.0,67,0.00,,,0.00,WUHU216HW,2013-11-19 03:59:00,
2013-11-18 23:04:00,34.7,24.8,29.72,SW,225,0.7,3.4,67,0.00,,,0.00,WUHU216HW,2013-11-19 04:04:00,
2013-11-18 23:07:00,34.7,24.8,29.72,NNW,338,0.4,3.4,67,0.00,,,0.00,WUHU216HW,2013-11-19 04:07:00,
2013-11-18 23:12:00,34.7,24.8,29.73,NNW,338,0.9,3.4,67,0.00,,,0.00,WUHU216HW,2013-11-19 04:12:00,
2013-11-18 23:17:00,34.7,24.8,29.73,WNW,293,2.5,3.1,67,0.00,,,0.00,WUHU216HW,2013-11-19 04:17:00,
2013-11-18 23:22:00,34.6,24.3,29.73,NNW,338,3.8,4.7,66,0.00,,,0.00,WUHU216HW,2013-11-19 04:22:00,
2013-11-18 23:27:00,34.7,24.5,29.73,WNW,293,0.7,4.7,66,0.00,,,0.00,WUHU216HW,2013-11-19 04:27:00,
2013-11-18 23:32:00,34.7,24.8,29.73,West,270,3.4,4.5,67,0.00,,,0.00,WUHU216HW,2013-11-19 04:32:00,
2013-11-18 23:37:00,34.7,24.5,29.73,NW,315,0.4,3.6,66,0.00,,,0.00,WUHU216HW,2013-11-19 04:37:00,
2013-11-18 23:42:00,34.7,24.5,29.74,NW,315,1.6,3.6,66,0.00,,,0.00,WUHU216HW,2013-11-19 04:42:00,
2013-11-18 23:47:00,34.7,24.8,29.74,NNW,338,1.1,2.9,67,0.00,,,0.00,WUHU216HW,2013-11-19 04:47:00,
2013-11-18 23:52:00,34.7,24.5,29.74,West,270,2.9,3.6,66,0.00,,,0.00,WUHU216HW,2013-11-19 04:52:00,
2013-11-18 23:57:00,34.7,24.5,29.74,West,270,0.4,3.6,66,0.00,,,0.00,WUHU216HW,2013-11-19 04:57:00,